"startDT [UTC]","vpos","CH4 [ppm]","stdev(CH4) [ppm]","CO2 [ppm]","stdev(CO2) [ppm]","H2O [ppm]","stdev(H2O)","p_LGR [torr]","T_LGR [C]","mt1_LGR [us]","mt2_LGR [us]","T_ECpre [C]","T_EC1 [C]","T_EC2 [C]","p_inlet [hPa]","p_in [hPa]","p_out [hPa]","T_inlet [C]","RH_inlet [%]","dwpt_inlet [C]","T_vent [C]","RH_vent [%]","dwpt_vent [C]","flow_vent [l min-1]","flow_inlet [l min-1]","dwpt_sample [C]","T_room [C]"
2012-10-11 00:00:00,0.0,1.9106,0.0015,397.49,0.32,15.3,23.7,138.24,22.88,24.60,36.27,0.04,-272.74,-272.74,-45,560,-933,17.5,11.2,-13.1,17.8,11.4,-12.6,5.73,2.43,-27.0,23.1
2012-10-11 00:01:00,0.0,1.9069,0.0016,396.93,0.28,22.7,29.1,138.24,22.88,24.60,36.28,0.04,-272.74,-272.75,-45,560,-933,17.4,11.3,-13.0,17.8,11.4,-12.6,5.73,2.43,-27.0,23.1
2012-10-11 00:02:00,0.0,1.9059,0.0012,396.91,0.31,11.3,19.9,138.24,22.88,24.60,36.28,0.04,-272.74,-272.74,-45,561,-933,17.5,11.3,-13.0,17.8,11.4,-12.6,5.73,2.43,-27.0,23.1
2012-10-11 00:03:00,0.0,1.9130,0.0016,397.40,0.33,11.7,23.2,138.24,22.88,24.60,36.28,0.04,-272.74,-272.74,-45,561,-933,17.4,11.3,-13.0,17.8,11.4,-12.6,5.73,2.42,-27.0,23.1
2012-10-11 00:04:00,0.0,1.9089,0.0046,397.17,0.39,19.9,31.3,138.25,22.87,24.61,36.27,0.04,-272.74,-272.74,-45,561,-934,17.4,11.4,-12.9,17.8,11.5,-12.5,5.73,2.42,-27.0,23.2
2012-10-11 00:05:00,0.0,1.9011,0.0037,396.58,0.34,22.5,28.8,138.24,22.87,24.60,36.27,0.04,-272.74,-272.74,-45,561,-933,17.4,11.4,-12.9,17.8,11.5,-12.5,5.73,2.43,-27.0,23.2
2012-10-11 00:06:00,0.0,1.9125,0.0015,397.53,0.27,14.0,21.7,138.24,22.88,24.60,36.27,0.04,-272.74,-272.74,-45,561,-933,17.4,11.4,-12.9,17.7,11.6,-12.5,5.73,2.42,-27.0,23.2
2012-10-11 00:07:00,0.0,1.9089,0.0021,397.12,0.29,16.5,20.4,138.24,22.88,24.61,36.28,0.04,-272.74,-272.74,-45,560,-933,17.4,11.4,-12.9,17.8,11.5,-12.5,5.73,2.42,-27.0,23.1
2012-10-11 00:08:00,0.0,1.9170,0.0017,397.81,0.38,12.6,22.2,138.25,22.88,24.60,36.28,0.04,-272.74,-272.74,-45,560,-933,17.4,11.4,-12.9,17.8,11.5,-12.5,5.73,2.43,-27.0,23.2
2012-10-11 00:09:00,0.0,1.9182,0.0010,397.72,0.30,16.0,22.8,138.24,22.88,24.61,36.28,0.04,-272.74,-272.74,-45,560,-934,17.4,11.4,-12.9,17.7,11.5,-12.5,5.73,2.42,-27.0,23.1
2012-10-11 00:10:00,0.0,1.9196,0.0009,397.73,0.29,13.1,19.0,138.25,22.88,24.60,36.28,0.04,-272.74,-272.74,-45,560,-933,17.4,11.4,-12.9,17.8,11.6,-12.5,5.73,2.42,-27.0,23.1
2012-10-11 00:11:00,0.0,1.9202,0.0010,397.80,0.32,15.9,23.1,138.24,22.89,24.61,36.28,0.04,-272.74,-272.74,-45,561,-933,17.4,11.4,-12.9,17.7,11.6,-12.5,5.73,2.42,-27.0,23.1
2012-10-11 00:12:00,0.0,1.9205,0.0010,397.70,0.28,20.5,26.4,138.25,22.89,24.60,36.28,0.04,-272.74,-272.74,-45,560,-934,17.4,11.4,-12.9,17.8,11.5,-12.5,5.73,2.42,-27.0,23.1
2012-10-11 00:13:00,0.0,1.9224,0.0012,398.04,0.26,15.4,19.8,138.24,22.89,24.60,36.27,0.04,-272.74,-272.74,-45,561,-933,17.4,11.4,-12.9,17.7,11.6,-12.5,5.73,2.42,-27.0,23.1
2012-10-11 00:14:00,0.0,1.9217,0.0013,397.96,0.25,13.5,21.0,138.24,22.89,24.61,36.29,0.04,-272.74,-272.74,-45,560,-934,17.4,11.5,-12.8,17.8,11.7,-12.4,5.73,2.41,-27.0,23.1
2012-10-11 00:15:00,0.0,1.9222,0.0013,398.14,0.27,18.3,26.3,138.24,22.89,24.60,36.27,0.04,-272.74,-272.75,-45,561,-933,17.4,11.5,-12.8,17.8,11.7,-12.3,5.73,2.43,-27.0,23.2
2012-10-11 00:16:00,0.0,1.9216,0.0011,398.01,0.29,17.4,27.5,138.24,22.89,24.60,36.28,0.04,-272.74,-272.74,-45,560,-933,17.4,11.5,-12.8,17.8,11.7,-12.4,5.73,2.41,-27.0,23.1
2012-10-11 00:17:00,0.0,1.9208,0.0010,397.97,0.25,20.4,28.9,138.24,22.89,24.61,36.27,0.04,-272.74,-272.74,-45,560,-934,17.4,11.5,-12.8,17.8,11.7,-12.3,5.73,2.41,-27.0,23.1
2012-10-11 00:18:00,0.0,1.9192,0.0009,397.89,0.30,17.3,24.5,138.24,22.89,24.61,36.28,0.04,-272.74,-272.74,-45,561,-933,17.4,11.6,-12.7,17.7,11.7,-12.3,5.73,2.41,-27.0,23.1
2012-10-11 00:19:00,0.0,1.9199,0.0012,397.81,0.28,15.1,24.8,138.24,22.89,24.60,36.28,0.04,-272.74,-272.74,-45,560,-934,17.4,11.6,-12.7,17.8,11.7,-12.3,5.73,2.41,-27.0,23.2
2012-10-11 00:20:00,0.0,1.9183,0.0018,397.77,0.31,15.3,21.5,138.24,22.88,24.60,36.27,0.04,-272.74,-272.74,-45,561,-933,17.4,11.6,-12.7,17.7,11.8,-12.3,5.73,2.40,-27.0,23.2
2012-10-11 00:21:00,0.0,1.9159,0.0012,397.61,0.30,18.6,27.5,138.24,22.88,24.60,36.27,0.04,-272.74,-272.74,-45,560,-933,17.4,11.7,-12.7,17.7,11.8,-12.2,5.73,2.41,-27.0,23.2
2012-10-11 00:22:00,0.0,1.9164,0.0011,397.61,0.30,15.3,20.3,138.24,22.87,24.60,36.28,0.04,-272.74,-272.74,-45,561,-934,17.4,11.7,-12.6,17.7,11.9,-12.2,5.73,2.41,-27.0,23.2
2012-10-11 00:23:00,0.0,1.9157,0.0014,397.58,0.27,14.7,24.9,138.25,22.87,24.61,36.27,0.04,-272.74,-272.74,-45,561,-933,17.4,11.7,-12.6,17.7,11.9,-12.2,5.73,2.41,-27.0,23.1
2012-10-11 00:24:00,0.0,1.9167,0.0011,397.57,0.31,15.0,22.0,138.24,22.86,24.61,36.27,0.04,-272.74,-272.74,-45,561,-933,17.4,11.8,-12.5,17.7,11.9,-12.1,5.73,2.41,-27.0,23.1
2012-10-11 00:25:00,0.0,1.9120,0.0024,397.22,0.28,15.6,21.2,138.25,22.86,24.61,36.28,0.04,-272.74,-272.74,-45,561,-933,17.4,11.8,-12.5,17.8,12.0,-12.0,5.73,2.42,-27.0,23.1
2012-10-11 00:26:00,0.0,1.9084,0.0015,396.95,0.25,19.7,27.2,138.24,22.86,24.61,36.28,0.04,-272.74,-272.74,-45,560,-933,17.4,11.9,-12.4,17.8,12.0,-12.0,5.73,2.42,-27.0,23.1
2012-10-11 00:27:00,0.0,1.9111,0.0009,397.03,0.25,18.7,28.0,138.24,22.86,24.61,36.28,0.04,-272.74,-272.74,-45,561,-934,17.4,12.0,-12.3,17.8,12.2,-11.8,5.73,2.42,-27.0,23.1
2012-10-11 00:28:00,0.0,1.9093,0.0018,396.95,0.29,13.6,21.9,138.24,22.85,24.60,36.28,0.04,-272.74,-272.75,-45,560,-933,17.4,12.1,-12.2,17.8,12.3,-11.7,5.73,2.42,-27.0,23.1
2012-10-11 00:29:00,0.0,1.9027,0.0017,396.73,0.28,13.4,20.5,138.25,22.85,24.61,36.28,0.04,-272.74,-272.74,-45,560,-933,17.4,12.2,-12.1,17.8,12.4,-11.6,5.73,2.42,-27.0,23.1
2012-10-11 00:30:00,0.0,1.9022,0.0010,396.77,0.32,16.4,22.8,138.24,22.85,24.61,36.28,0.04,-272.74,-272.74,-45,560,-934,17.4,12.3,-12.0,17.7,12.4,-11.6,5.73,2.42,-27.0,23.1
2012-10-11 00:31:00,0.0,1.9005,0.0010,396.71,0.24,17.1,28.5,138.25,22.86,24.61,36.28,0.04,-272.74,-272.74,-45,560,-933,17.4,12.3,-11.9,17.8,12.5,-11.5,5.73,2.42,-27.0,23.1
2012-10-11 00:32:00,0.0,1.9014,0.0008,396.64,0.33,16.8,28.6,138.25,22.86,24.60,36.29,0.04,-272.74,-272.74,-45,560,-934,17.4,12.4,-11.9,17.7,12.6,-11.5,5.73,2.42,-27.0,23.1
2012-10-11 00:33:00,0.0,1.9009,0.0010,396.83,0.24,14.1,21.0,138.24,22.87,24.60,36.27,0.04,-272.74,-272.74,-45,561,-933,17.4,12.5,-11.8,17.8,12.7,-11.3,5.73,2.42,-27.0,23.1
2012-10-11 00:34:00,0.0,1.9004,0.0009,396.58,0.28,17.5,24.9,138.24,22.87,24.60,36.28,0.04,-272.74,-272.74,-45,561,-933,17.4,12.7,-11.5,17.8,12.9,-11.1,5.73,2.43,-27.0,23.2
2012-10-11 00:35:00,0.0,1.9014,0.0010,396.55,0.27,14.7,23.9,138.24,22.86,24.60,36.28,0.04,-272.74,-272.74,-45,560,-933,17.4,12.9,-11.4,17.8,13.0,-11.0,5.73,2.43,-27.0,23.2
2012-10-11 00:36:00,0.0,1.9012,0.0008,396.46,0.28,13.0,19.1,138.24,22.86,24.61,36.29,0.04,-272.74,-272.74,-45,560,-933,17.4,13.0,-11.3,17.7,13.2,-10.9,5.73,2.43,-27.0,23.2
2012-10-11 00:37:00,0.0,1.9030,0.0011,396.68,0.25,12.5,21.8,138.24,22.86,24.60,36.28,0.04,-272.74,-272.74,-45,561,-934,17.4,13.1,-11.2,17.7,13.3,-10.8,5.73,2.43,-27.0,23.2
2012-10-11 00:38:00,0.0,1.9030,0.0008,396.72,0.30,17.1,23.0,138.24,22.85,24.60,36.28,0.04,-272.74,-272.74,-45,561,-933,17.4,13.2,-11.1,17.7,13.4,-10.6,5.73,2.43,-27.0,23.1
2012-10-11 00:39:00,0.0,1.9027,0.0008,396.80,0.27,23.1,25.5,138.24,22.85,24.60,36.27,0.04,-272.74,-272.74,-45,561,-934,17.4,13.3,-11.0,17.7,13.5,-10.6,5.73,2.43,-27.0,23.2
2012-10-11 00:40:00,0.0,1.9024,0.0010,396.58,0.26,15.5,23.4,138.24,22.85,24.60,36.28,0.04,-272.74,-272.74,-45,561,-933,17.4,13.4,-11.0,17.8,13.6,-10.5,5.73,2.43,-27.0,23.2
2012-10-11 00:41:00,0.0,1.9034,0.0011,396.55,0.27,16.3,19.4,138.24,22.85,24.60,36.29,0.04,-272.74,-272.74,-45,561,-933,17.4,13.4,-10.9,17.8,13.6,-10.4,5.73,2.42,-27.0,23.2
2012-10-11 00:42:00,0.0,1.9055,0.0011,396.82,0.25,22.5,26.4,138.24,22.84,24.60,36.28,0.04,-272.74,-272.74,-45,561,-934,17.4,13.5,-10.9,17.8,13.7,-10.4,5.73,2.42,-27.0,23.1
2012-10-11 00:43:00,0.0,1.9088,0.0025,397.03,0.28,14.3,20.5,138.25,22.84,24.60,36.28,0.04,-272.74,-272.74,-45,561,-933,17.4,13.5,-10.8,17.7,13.7,-10.4,5.73,2.42,-27.0,23.0
2012-10-11 00:44:00,0.0,1.9112,0.0020,397.17,0.31,18.4,23.9,138.24,22.84,24.60,36.28,0.04,-272.74,-272.74,-45,561,-934,17.4,13.5,-10.8,17.7,13.7,-10.4,5.73,2.42,-27.0,23.1
2012-10-11 00:45:00,0.0,1.9071,0.0014,396.87,0.27,10.5,17.1,138.25,22.84,24.60,36.28,0.04,-272.74,-272.74,-45,560,-934,17.4,13.5,-10.8,17.8,13.7,-10.3,5.73,2.43,-27.0,23.1
2012-10-11 00:46:00,0.0,1.9034,0.0009,396.64,0.26,20.5,25.0,138.25,22.84,24.61,36.28,0.04,-272.74,-272.74,-44,561,-933,17.4,13.5,-10.8,17.8,13.7,-10.3,5.73,2.42,-27.0,23.2
2012-10-11 00:47:00,0.0,1.9037,0.0011,396.63,0.26,14.2,21.7,138.24,22.84,24.61,36.27,0.04,-272.74,-272.74,-44,561,-934,17.4,13.6,-10.8,17.7,13.7,-10.3,5.73,2.42,-27.0,23.2
2012-10-11 00:48:00,0.0,1.9051,0.0012,396.77,0.23,13.5,21.9,138.25,22.84,24.61,36.27,0.04,-272.74,-272.74,-44,561,-933,17.4,13.5,-10.8,17.7,13.7,-10.3,5.73,2.42,-27.0,23.1
2012-10-11 00:49:00,0.0,1.9069,0.0009,396.72,0.27,22.2,29.6,138.24,22.83,24.60,36.27,0.04,-272.74,-272.74,-44,561,-934,17.4,13.5,-10.8,17.7,13.7,-10.4,5.73,2.42,-27.0,23.1
2012-10-11 00:50:00,0.0,1.9071,0.0012,396.66,0.28,15.7,22.4,138.25,22.83,24.60,36.28,0.04,-272.74,-272.74,-44,561,-934,17.4,13.6,-10.8,17.7,13.8,-10.3,5.73,2.42,-27.0,23.1
2012-10-11 00:51:00,0.0,1.9066,0.0009,396.64,0.27,14.0,19.2,138.24,22.83,24.61,36.28,0.04,-272.74,-272.74,-44,561,-934,17.4,13.6,-10.7,17.7,13.8,-10.3,5.73,2.41,-27.0,23.1
2012-10-11 00:52:00,0.0,1.9072,0.0012,396.68,0.26,23.6,28.3,138.25,22.83,24.61,36.27,0.04,-272.74,-272.74,-44,561,-934,17.4,13.7,-10.7,17.7,13.9,-10.2,5.73,2.42,-27.0,23.1
2012-10-11 00:53:00,0.0,1.9086,0.0010,396.74,0.29,19.0,27.0,138.25,22.84,24.61,36.27,0.04,-272.74,-272.74,-44,561,-933,17.4,13.7,-10.6,17.8,13.9,-10.2,5.73,2.41,-27.0,23.2
2012-10-11 00:54:00,0.0,1.9083,0.0010,396.81,0.23,16.4,23.1,138.25,22.84,24.61,36.27,0.04,-272.74,-272.74,-44,561,-934,17.4,13.8,-10.6,17.7,14.0,-10.2,5.73,2.41,-27.0,23.1
2012-10-11 00:55:00,0.0,1.9076,0.0008,396.77,0.27,15.2,22.1,138.25,22.85,24.61,36.27,0.04,-272.74,-272.74,-44,561,-934,17.4,13.8,-10.6,17.7,14.0,-10.1,5.73,2.42,-27.0,23.1
2012-10-11 00:56:00,0.0,1.9078,0.0009,396.70,0.26,11.6,18.6,138.24,22.85,24.60,36.28,0.04,-272.74,-272.74,-44,561,-933,17.4,13.8,-10.5,17.7,14.0,-10.1,5.73,2.41,-27.0,23.1
2012-10-11 00:57:00,0.0,1.9083,0.0009,396.81,0.26,17.8,21.9,138.25,22.85,24.60,36.27,0.04,-272.74,-272.74,-44,561,-934,17.4,13.9,-10.5,17.7,14.1,-10.0,5.73,2.41,-27.0,23.1
2012-10-11 00:58:00,0.0,1.9092,0.0010,396.70,0.26,12.2,19.6,138.24,22.84,24.61,36.28,0.04,-272.74,-272.75,-44,561,-933,17.4,13.9,-10.5,17.7,14.1,-10.0,5.73,2.42,-27.0,23.1
2012-10-11 00:59:00,0.0,1.9090,0.0010,396.68,0.25,15.0,24.6,138.24,22.85,24.60,36.28,0.04,-272.74,-272.74,-44,561,-934,17.4,14.0,-10.4,17.7,14.2,-10.0,5.73,2.42,-27.0,23.1
2012-10-11 01:00:00,0.0,1.9086,0.0011,396.77,0.29,20.1,25.4,138.24,22.85,24.61,36.27,0.04,-272.74,-272.74,-44,561,-934,17.4,14.0,-10.4,17.7,14.2,-9.9,5.73,2.42,-27.0,23.1
2012-10-11 01:01:00,0.0,1.9091,0.0009,396.81,0.27,18.1,26.5,138.24,22.85,24.60,36.27,0.04,-272.74,-272.74,-44,561,-933,17.4,14.0,-10.4,17.8,14.2,-9.9,5.73,2.42,-27.0,23.1
2012-10-11 01:02:00,0.0,1.9089,0.0008,396.81,0.28,7.4,11.5,138.25,22.84,24.61,36.28,0.04,-272.74,-272.74,-44,561,-934,17.4,14.0,-10.3,17.7,14.3,-9.9,5.73,2.69,-27.0,23.1
2012-10-11 01:01:00,0.0,1.9091,0.0009,396.82,0.27,18.2,26.3,138.24,22.85,24.60,36.27,0.04,-272.74,-272.74,-44,561,-933,17.4,14.0,-10.4,17.8,14.2,-9.9,5.73,2.42,-27.0,23.1
2012-10-11 01:02:00,0.0,1.9094,0.0009,396.77,0.31,12.0,18.3,138.25,22.84,24.60,36.28,0.04,-272.74,-272.74,-44,561,-933,17.4,14.1,-10.3,17.7,14.3,-9.8,5.73,2.41,-27.0,23.1
2012-10-11 01:03:00,0.0,1.9082,0.0010,396.89,0.25,26.6,37.0,138.24,22.84,24.61,36.27,0.04,-272.74,-272.74,-44,561,-934,17.4,14.2,-10.2,17.8,14.4,-9.8,5.73,2.43,-27.0,23.2
2012-10-11 01:04:00,0.0,1.9073,0.0012,396.68,0.26,21.6,27.0,138.25,22.84,24.60,36.28,0.04,-272.74,-272.74,-44,561,-934,17.4,14.2,-10.2,17.8,14.4,-9.7,5.73,2.43,-27.0,23.2
2012-10-11 01:05:00,0.0,1.9042,0.0016,396.35,0.33,18.8,27.4,138.24,22.84,24.60,36.28,0.04,-272.74,-272.74,-44,561,-933,17.4,14.3,-10.1,17.7,14.5,-9.6,5.73,2.43,-27.0,23.1
2012-10-11 01:06:00,0.0,1.9071,0.0018,396.66,0.31,20.2,28.8,138.25,22.83,24.60,36.28,0.04,-272.74,-272.74,-44,561,-934,17.4,14.4,-10.0,17.7,14.6,-9.6,5.73,2.43,-27.0,23.2
2012-10-11 01:07:00,0.0,1.9072,0.0009,396.78,0.28,15.3,20.5,138.25,22.83,24.60,36.27,0.04,-272.74,-272.74,-44,561,-933,17.4,14.5,-9.9,17.7,14.7,-9.5,5.73,2.43,-27.0,23.2
2012-10-11 01:08:00,0.0,1.9093,0.0017,396.87,0.33,12.0,20.9,138.25,22.84,24.60,36.28,0.04,-272.74,-272.74,-44,561,-934,17.4,14.6,-9.8,17.7,14.8,-9.4,5.73,2.43,-26.9,23.2
2012-10-11 01:09:00,0.0,1.9111,0.0010,397.08,0.27,18.4,27.0,138.24,22.84,24.61,36.28,0.04,-272.74,-272.74,-44,561,-934,17.4,14.7,-9.8,17.7,14.9,-9.3,5.73,2.42,-27.0,23.2
2012-10-11 01:10:00,0.0,1.9116,0.0011,396.97,0.29,17.3,22.6,138.25,22.85,24.60,36.27,0.04,-272.74,-272.74,-44,561,-934,17.4,14.8,-9.7,17.7,15.0,-9.2,5.73,2.42,-27.0,23.2
2012-10-11 01:11:00,0.0,1.9139,0.0014,397.24,0.28,20.2,24.7,138.24,22.85,24.60,36.28,0.04,-272.74,-272.74,-44,561,-934,17.4,14.8,-9.7,17.7,15.0,-9.2,5.73,2.42,-27.0,23.2
2012-10-11 01:12:00,0.0,1.9151,0.0029,397.25,0.30,18.9,30.9,138.24,22.85,24.60,36.27,0.04,-272.74,-272.74,-44,561,-934,17.4,14.9,-9.6,17.7,15.1,-9.2,5.73,2.43,-26.9,23.2
2012-10-11 01:13:00,0.0,1.9057,0.0020,396.60,0.26,12.8,19.9,138.25,22.84,24.60,36.28,0.04,-272.74,-272.74,-44,561,-934,17.4,14.9,-9.6,17.7,15.1,-9.1,5.73,2.42,-27.0,23.1
2012-10-11 01:14:00,0.0,1.8993,0.0014,396.34,0.31,17.9,25.2,138.24,22.84,24.61,36.27,0.04,-272.74,-272.74,-44,561,-934,17.4,14.9,-9.6,17.7,15.1,-9.1,5.73,2.42,-27.0,23.1
2012-10-11 01:15:00,0.0,1.8973,0.0011,396.23,0.29,17.8,24.6,138.24,22.84,24.61,36.28,0.04,-272.74,-272.74,-44,561,-933,17.4,15.0,-9.5,17.7,15.2,-9.1,5.73,2.42,-26.9,23.1
2012-10-11 01:16:00,0.0,1.9019,0.0040,396.55,0.29,24.7,27.3,138.24,22.84,24.60,36.27,0.04,-272.74,-272.74,-44,561,-934,17.4,15.0,-9.5,17.7,15.3,-9.0,5.73,2.43,-26.9,23.1
2012-10-11 01:17:00,0.0,1.9111,0.0025,397.09,0.29,12.1,18.2,138.25,22.84,24.60,36.27,0.04,-272.74,-272.74,-44,561,-934,17.4,15.1,-9.4,17.7,15.3,-9.0,5.73,2.42,-27.0,23.1
2012-10-11 01:18:00,0.0,1.9078,0.0024,396.76,0.32,17.4,25.3,138.24,22.84,24.60,36.28,0.04,-272.74,-272.74,-43,561,-934,17.4,15.1,-9.4,17.7,15.4,-8.9,5.73,2.43,-27.0,23.1
2012-10-11 01:19:00,0.0,1.9068,0.0009,396.65,0.32,18.6,28.0,138.25,22.83,24.60,36.28,0.04,-272.74,-272.74,-43,561,-934,17.4,15.2,-9.3,17.7,15.5,-8.9,5.73,2.43,-26.9,23.1
2012-10-11 01:20:00,0.0,1.9079,0.0015,396.72,0.29,13.9,20.3,138.24,22.83,24.61,36.27,0.04,-272.74,-272.74,-43,561,-934,17.4,15.3,-9.2,17.7,15.6,-8.8,5.73,2.42,-26.9,23.1
2012-10-11 01:21:00,0.0,1.9078,0.0015,396.65,0.24,15.6,21.7,138.24,22.83,24.60,36.27,0.04,-272.74,-272.74,-43,561,-934,17.4,15.4,-9.2,17.7,15.7,-8.7,5.73,2.43,-27.0,23.1
2012-10-11 01:22:00,0.0,1.9127,0.0019,396.78,0.27,14.9,23.2,138.24,22.83,24.61,36.27,0.04,-272.74,-272.74,-43,561,-934,17.4,15.5,-9.1,17.7,15.7,-8.6,5.73,2.43,-26.9,23.1
2012-10-11 01:23:00,0.0,1.9141,0.0009,396.77,0.21,24.6,32.8,138.24,22.83,24.60,36.28,0.04,-272.74,-272.74,-43,561,-933,17.4,15.5,-9.1,17.7,15.8,-8.6,5.73,2.43,-26.9,23.1
2012-10-11 01:24:00,0.0,1.9154,0.0011,396.74,0.20,16.2,25.7,138.24,22.82,24.61,36.28,0.04,-272.74,-272.74,-43,561,-934,17.4,15.6,-9.0,17.7,15.8,-8.6,5.73,2.42,-26.9,23.1
2012-10-11 01:25:00,0.0,1.9147,0.0016,396.76,0.29,23.1,29.8,138.25,22.82,24.61,36.27,0.04,-272.74,-272.74,-43,561,-934,17.4,15.6,-9.0,17.7,15.9,-8.5,5.73,2.43,-26.9,23.1
2012-10-11 01:26:00,0.0,1.9174,0.0047,396.83,0.31,13.3,20.7,138.24,22.82,24.61,36.27,0.04,-272.74,-272.74,-43,561,-934,17.4,15.7,-8.9,17.7,15.9,-8.5,5.73,2.43,-26.9,23.1
2012-10-11 01:27:00,0.0,1.9266,0.0012,397.02,0.25,17.7,26.4,138.25,22.81,24.61,36.28,0.04,-272.74,-272.74,-43,561,-934,17.4,15.7,-8.9,17.7,16.0,-8.4,5.73,2.42,-26.9,23.1
2012-10-11 01:28:00,0.0,1.9236,0.0025,397.18,0.25,27.4,28.6,138.24,22.81,24.61,36.28,0.04,-272.74,-272.74,-43,561,-934,17.4,15.8,-8.9,17.7,16.0,-8.4,5.73,2.43,-26.9,23.1
2012-10-11 01:29:00,0.0,1.9236,0.0016,397.14,0.31,18.9,26.2,138.24,22.81,24.61,36.28,0.04,-272.74,-272.74,-43,561,-934,17.4,15.8,-8.8,17.7,16.0,-8.4,5.73,2.42,-26.9,23.1
2012-10-11 01:30:00,0.0,1.9294,0.0022,397.32,0.26,18.5,27.5,138.25,22.81,24.60,36.28,0.04,-272.74,-272.74,-43,561,-934,17.4,15.8,-8.8,17.8,16.1,-8.3,5.73,2.43,-26.9,23.1
2012-10-11 01:31:00,0.0,1.9233,0.0079,397.20,0.35,14.7,21.5,138.24,22.81,24.60,36.28,0.04,-272.74,-272.74,-43,561,-934,17.4,15.9,-8.8,17.7,16.1,-8.3,5.73,2.43,-26.9,23.2
2012-10-11 01:32:00,0.0,1.9124,0.0011,396.87,0.28,20.6,27.7,138.24,22.81,24.60,36.27,0.04,-272.74,-272.74,-43,561,-934,17.4,16.0,-8.7,17.7,16.2,-8.2,5.73,2.43,-26.9,23.2
2012-10-11 01:33:00,0.0,1.9123,0.0010,396.77,0.31,21.6,28.0,138.25,22.81,24.60,36.28,0.04,-272.74,-272.74,-43,561,-934,17.4,16.0,-8.6,17.8,16.3,-8.1,5.73,2.42,-26.9,23.2
2012-10-11 01:34:00,0.0,1.9168,0.0021,397.02,0.28,17.6,23.0,138.24,22.81,24.60,36.27,0.04,-272.74,-272.74,-43,561,-933,17.4,16.1,-8.6,17.7,16.4,-8.1,5.73,2.42,-26.9,23.1
2012-10-11 01:35:00,0.0,1.9171,0.0010,397.03,0.25,9.9,17.2,138.24,22.81,24.61,36.27,0.04,-272.74,-272.74,-43,561,-934,17.4,16.2,-8.5,17.7,16.5,-8.0,5.73,2.43,-26.9,23.1
2012-10-11 01:36:00,0.0,1.9139,0.0031,396.84,0.29,24.4,27.9,138.24,22.81,24.61,36.27,0.04,-272.74,-272.74,-43,561,-934,17.4,16.3,-8.4,17.8,16.5,-8.0,5.73,2.42,-26.9,23.1
2012-10-11 01:37:00,0.0,1.9132,0.0030,396.74,0.28,18.9,25.8,138.24,22.81,24.60,36.28,0.04,-272.74,-272.74,-43,561,-934,17.4,16.4,-8.4,17.7,16.6,-7.9,5.73,2.43,-26.9,23.1
2012-10-11 01:38:00,0.0,1.9146,0.0013,396.88,0.34,10.7,17.2,138.24,22.82,24.61,36.28,0.04,-272.74,-272.74,-43,561,-934,17.4,16.5,-8.3,17.7,16.7,-7.9,5.73,2.42,-26.9,23.1
2012-10-11 01:39:00,0.0,1.9090,0.0011,396.58,0.27,23.1,26.3,138.24,22.82,24.61,36.27,0.04,-272.74,-272.74,-43,561,-934,17.4,16.5,-8.3,17.8,16.8,-7.8,5.73,2.42,-26.8,23.1
2012-10-11 01:40:00,0.0,1.9057,0.0014,396.61,0.24,22.0,31.1,138.24,22.82,24.60,36.27,0.04,-272.74,-272.74,-43,561,-934,17.4,16.6,-8.2,17.8,16.9,-7.7,5.73,2.42,-26.9,23.1
2012-10-11 01:41:00,0.0,1.9057,0.0016,396.75,0.28,23.2,26.3,138.24,22.82,24.60,36.27,0.04,-272.74,-272.74,-43,561,-934,17.4,16.7,-8.1,17.8,17.0,-7.6,5.73,2.43,-26.9,23.1
2012-10-11 01:42:00,0.0,1.9055,0.0011,396.57,0.29,15.7,22.2,138.24,22.82,24.61,36.28,0.04,-272.74,-272.75,-43,561,-934,17.4,16.8,-8.1,17.8,17.1,-7.6,5.73,2.42,-26.9,23.1
2012-10-11 01:43:00,0.0,1.9043,0.0013,396.46,0.31,23.1,27.7,138.25,22.81,24.61,36.28,0.04,-272.74,-272.74,-42,561,-934,17.4,16.9,-8.0,17.7,17.1,-7.5,5.73,2.43,-26.9,23.1
2012-10-11 01:44:00,0.0,1.9030,0.0012,396.48,0.28,19.7,22.4,138.24,22.81,24.60,36.28,0.04,-272.74,-272.74,-42,561,-934,17.4,16.9,-8.0,17.7,17.1,-7.5,5.73,2.43,-26.9,23.1
2012-10-11 01:45:00,0.0,1.9033,0.0010,396.46,0.26,19.1,25.2,138.24,22.81,24.60,36.28,0.04,-272.74,-272.74,-42,561,-934,17.4,16.9,-8.0,17.7,17.1,-7.5,5.73,2.43,-26.8,23.1
2012-10-11 01:46:00,0.0,1.9035,0.0009,396.61,0.33,22.0,27.9,138.25,22.81,24.61,36.28,0.04,-272.74,-272.74,-42,561,-934,17.4,16.8,-8.1,17.7,17.1,-7.6,5.73,2.42,-26.8,23.1
2012-10-11 01:47:00,0.0,1.9041,0.0014,396.61,0.28,16.8,25.5,138.24,22.81,24.60,36.28,0.04,-272.74,-272.74,-42,561,-934,17.4,16.7,-8.1,17.7,17.0,-7.6,5.73,2.42,-26.8,23.1
2012-10-11 01:48:00,0.0,1.9074,0.0008,396.80,0.33,19.1,23.2,138.24,22.81,24.60,36.27,0.04,-272.74,-272.74,-42,561,-934,17.4,16.7,-8.2,17.8,16.9,-7.7,5.73,2.43,-26.8,23.1
2012-10-11 01:49:00,0.0,1.9058,0.0016,396.52,0.29,17.5,24.3,138.24,22.81,24.60,36.28,0.04,-272.74,-272.74,-42,561,-934,17.4,16.6,-8.2,17.8,16.9,-7.7,5.73,2.42,-26.8,23.1
2012-10-11 01:50:00,0.0,1.9043,0.0014,396.49,0.27,17.5,25.5,138.24,22.81,24.61,36.28,0.04,-272.74,-272.74,-42,561,-934,17.4,16.6,-8.2,17.7,16.9,-7.7,5.73,2.43,-26.8,23.1
2012-10-11 01:51:00,0.0,1.9060,0.0012,396.64,0.29,24.6,30.4,138.24,22.81,24.60,36.28,0.04,-272.74,-272.74,-42,561,-934,17.4,16.6,-8.2,17.8,16.9,-7.7,5.73,2.43,-26.8,23.2
2012-10-11 01:52:00,0.0,1.9082,0.0027,396.85,0.34,15.5,25.9,138.24,22.81,24.60,36.28,0.04,-272.74,-272.74,-42,561,-934,17.4,16.6,-8.2,17.8,16.9,-7.7,5.73,2.43,-26.8,23.1
2012-10-11 01:53:00,0.0,1.9127,0.0012,397.22,0.27,21.5,27.4,138.25,22.80,24.61,36.28,0.04,-272.74,-272.74,-42,561,-934,17.4,16.6,-8.2,17.7,16.9,-7.7,5.73,2.43,-26.8,23.1
2012-10-11 01:54:00,0.0,1.9081,0.0013,396.87,0.27,23.0,31.8,138.24,22.81,24.61,36.27,0.04,-272.74,-272.74,-42,561,-934,17.4,16.7,-8.2,17.8,16.9,-7.7,5.73,2.43,-26.8,23.1
2012-10-11 01:55:00,0.0,1.9080,0.0009,396.67,0.28,14.1,19.4,138.24,22.81,24.60,36.27,0.04,-272.74,-272.74,-42,561,-934,17.4,16.7,-8.1,17.8,17.0,-7.6,5.73,2.43,-26.8,23.1
2012-10-11 01:56:00,0.0,1.9078,0.0010,396.50,0.25,22.5,31.2,138.24,22.82,24.61,36.28,0.04,-272.74,-272.74,-42,561,-934,17.4,16.8,-8.0,17.8,17.1,-7.5,5.73,2.43,-26.8,23.1
2012-10-11 01:57:00,0.0,1.9070,0.0011,396.39,0.31,25.9,23.9,138.24,22.82,24.60,36.28,0.04,-272.74,-272.74,-42,561,-934,17.4,16.9,-7.9,17.8,17.2,-7.5,5.73,2.43,-26.8,23.1
2012-10-11 01:58:00,0.0,1.9073,0.0012,396.64,0.27,14.2,22.4,138.24,22.82,24.60,36.27,0.04,-272.74,-272.74,-42,561,-934,17.4,17.0,-7.9,17.8,17.3,-7.4,5.73,2.43,-26.8,23.1
2012-10-11 01:59:00,0.0,1.9093,0.0013,396.45,0.27,24.8,27.2,138.24,22.82,24.61,36.27,0.04,-272.74,-272.74,-42,561,-934,17.4,17.1,-7.8,17.8,17.3,-7.4,5.73,2.43,-26.8,23.1
2012-10-11 02:00:00,0.0,1.9110,0.0011,396.39,0.29,25.4,30.3,138.24,22.82,24.61,36.27,0.04,-272.74,-272.74,-42,561,-934,17.4,17.1,-7.8,17.8,17.4,-7.3,5.73,2.43,-26.8,23.0
2012-10-11 02:01:00,0.0,1.9093,0.0022,396.32,0.31,20.6,27.1,138.24,22.82,24.60,36.28,0.04,-272.74,-272.74,-42,561,-934,17.4,17.2,-7.7,17.8,17.5,-7.2,5.73,2.42,-26.8,23.1
2012-10-11 02:02:00,0.0,1.9063,0.0011,396.36,0.27,18.2,27.3,138.25,22.82,24.61,36.28,0.04,-272.74,-272.74,-42,561,-934,17.5,17.3,-7.7,17.8,17.5,-7.2,5.73,2.43,-26.8,23.1
2012-10-11 02:03:00,0.0,1.9056,0.0009,396.44,0.27,20.4,25.3,138.24,22.82,24.60,36.28,0.04,-272.73,-272.74,-42,561,-934,17.4,17.3,-7.6,17.8,17.6,-7.2,5.73,2.43,-26.8,23.1
2012-10-11 02:04:00,0.0,1.9035,0.0013,396.33,0.26,23.5,24.5,138.24,22.82,24.61,36.28,0.04,-272.74,-272.74,-42,561,-934,17.5,17.4,-7.6,17.8,17.6,-7.1,5.73,2.43,-26.8,23.1
2012-10-11 02:05:00,0.0,1.9139,0.0038,397.25,0.37,21.5,24.3,138.24,22.82,24.60,36.28,0.04,-272.74,-272.74,-42,561,-934,17.5,17.4,-7.6,17.8,17.7,-7.1,5.73,2.43,-26.8,23.1
2012-10-11 02:06:00,0.0,1.9195,0.0014,397.52,0.27,24.5,31.0,138.25,22.82,24.61,36.28,0.04,-272.74,-272.74,-42,561,-934,17.5,17.4,-7.5,17.8,17.7,-7.1,5.73,2.43,-26.7,23.1
2012-10-11 02:07:00,0.0,1.9203,0.0014,397.50,0.27,26.6,28.3,138.24,22.83,24.60,36.28,0.04,-272.74,-272.74,-42,561,-934,17.5,17.5,-7.5,17.8,17.7,-7.0,5.73,2.44,-26.7,23.1
2012-10-11 02:08:00,0.0,1.9171,0.0010,397.39,0.26,22.0,25.9,138.25,22.82,24.60,36.28,0.04,-272.75,-272.74,-42,561,-934,17.5,17.5,-7.5,17.8,17.8,-7.0,5.73,2.43,-26.7,23.1
2012-10-11 02:09:00,0.0,1.9171,0.0012,397.37,0.24,20.4,23.4,138.24,22.82,24.61,36.27,0.04,-272.74,-272.74,-42,561,-934,17.5,17.6,-7.4,17.8,17.9,-6.9,5.73,2.43,-26.7,23.1
2012-10-11 02:10:00,0.0,1.9155,0.0009,397.11,0.34,25.0,31.0,138.24,22.82,24.60,36.28,0.04,-272.74,-272.74,-42,561,-934,17.5,17.7,-7.3,17.8,18.0,-6.9,5.73,2.43,-26.7,23.1
2012-10-11 02:11:00,0.0,1.9112,0.0020,396.95,0.23,17.2,21.6,138.24,22.82,24.61,36.27,0.04,-272.74,-272.74,-42,561,-934,17.4,17.7,-7.3,17.8,18.0,-6.8,5.73,2.43,-26.7,23.2
2012-10-11 02:12:00,0.0,1.9096,0.0010,396.86,0.27,19.7,26.6,138.24,22.82,24.61,36.28,0.04,-272.74,-272.74,-42,561,-934,17.4,17.8,-7.3,17.8,18.1,-6.8,5.73,2.43,-26.7,23.2
2012-10-11 02:13:00,0.0,1.9088,0.0011,396.70,0.24,17.8,22.8,138.24,22.82,24.60,36.28,0.04,-272.74,-272.74,-42,561,-934,17.5,17.9,-7.2,17.8,18.2,-6.7,5.73,2.43,-26.7,23.2
2012-10-11 02:14:00,0.0,1.9085,0.0013,396.75,0.29,18.2,22.2,138.24,22.82,24.60,36.28,0.04,-272.74,-272.74,-42,561,-934,17.5,17.9,-7.2,17.8,18.2,-6.7,5.73,2.43,-26.7,23.2
2012-10-11 02:15:00,0.0,1.9071,0.0011,396.66,0.24,23.0,27.7,138.25,22.82,24.61,36.28,0.04,-272.74,-272.74,-42,561,-934,17.5,18.0,-7.1,17.8,18.3,-6.6,5.73,2.43,-26.7,23.1